This demonstration page uses our WeatherBlox Daily Observations layout. Learn more.

Left ArrowRight Arrow

Hourly Observations for June 12, 2018

Temp ( °F °C ) Dew Point ( °F °C ) Humidity (%) Winds ( mph kmh ) Pressure ( in mb ) Visibility ( mi km ) Precip ( " mm )
12:53 am 00:53 Clear 51 10.6 31 -0.6 46 46 WSW 21 33 29.91 1013 10 16 0.00 0.00
2:53 am 02:53 Clear 46 7.8 31 -0.6 56 56 SW 20 31 29.92 1013 10 16 0.00 0.00
3:53 am 03:53 Clear 45 7.2 33 0.6 63 63 SW 21 33 29.94 1014 10 16 0.00 0.00
4:53 am 04:53 Clear 46 7.8 32 0 58 58 SW 20 31 29.95 1014 10 16 0.00 0.00
5:53 am 05:53 Sunny 46 7.8 32 0 58 58 SW 18 30 29.96 1014 10 16 0.00 0.00
6:53 am 06:53 Sunny 49 9.4 31 -0.6 50 50 SW 21 33 29.96 1015 10 16 0.00 0.00
7:53 am 07:53 Sunny 53 11.7 32 0 45 45 SW 21 33 29.96 1015 10 16 0.00 0.00
8:53 am 08:53 Sunny 59 15 31 -0.6 35 35 WSW 24 39 29.95 1014 10 16 0.00 0.00
9:53 am 09:53 Sunny 61 16.1 29 -1.7 30 30 W 22 35 29.93 1014 10 16 0.00 0.00
10:53 am 10:53 Sunny 64 17.8 27 -2.8 25 25 W 25 41 29.92 1013 10 16 0.00 0.00
11:53 am 11:53 Sunny 67 19.4 29 -1.7 24 24 WSW 22 35 29.91 1013 10 16 0.00 0.00
12:53 pm 12:53 Sunny 69 20.6 26 -3.3 20 20 W 25 41 29.91 1013 10 16 0.00 0.00
1:53 pm 13:53 Sunny 71 21.7 21 -6.1 15 15 WSW 26 43 29.90 1012 10 16 0.00 0.00
2:53 pm 14:53 Sunny 73 22.8 22 -5.6 15 15 W 25 41 29.88 1012 10 16 0.00 0.00
3:53 pm 15:53 Sunny 74 23.3 24 -4.4 15 15 WSW 18 30 29.87 1011 10 16 0.00 0.00
4:53 pm 16:53 Sunny 75 23.9 22 -5.6 14 14 WSW 21 33 29.85 1011 10 16 0.00 0.00
5:53 pm 17:53 Sunny 75 23.9 21 -6.1 13 13 W 21 33 29.84 1011 10 16 0.00 0.00
6:53 pm 18:53 Sunny 71 21.7 23 -5 16 16 W 17 28 29.85 1011 10 16 0.00 0.00
7:53 pm 19:53 Sunny 70 21.1 26 -3.3 19 19 W 15 24 29.84 1011 10 16 0.00 0.00
8:53 pm 20:53 Sunny 64 17.8 28 -2.2 26 26 SW 9 15 29.85 1011 10 16 0.00 0.00
9:53 pm 21:53 Clear 59 15 31 -0.6 35 35 SW 10 17 29.87 1012 10 16 0.00 0.00
10:53 pm 22:53 Clear 60 15.6 31 -0.6 33 33 WSW 12 19 29.86 1011 10 16 0.00 0.00
11:53 pm 23:53 Clear 59 15 31 -0.6 35 35 SSW 8 13 29.85 1011 10 16 0.00 0.00

Powered by AerisWeather